Retour au catalogue

COSMOS 530

ActifMilitaireLEO
NORAD 6265·PAYLOAD·🇷🇺 Russia

Lancé Nov 1, 1972 depuis Plesetsk Cosmodrome

Loading…

Prochains Passages (prochaines 24 heures)

TLE

FraisSource: Space-Track

Époque: Sep 14, 2026, 11:30 UTC

1 06265U 72087C   26257.47985134 -.00000003  00000-0  74846-4 0  9993
2 06265  74.0363 177.4595 0087536 242.6718 237.5692 12.65678662488880

Suivez COSMOS 530 en temps réel avec AllMySat

Download on the App Store